KE0TRL Weather Reports


time (UTC)temp
C
wind
direction
speed
KPH
gust
KPH
rain 1hr
cm
rain 24hr
cm
rain mn
cm
humidity
%
barometer
mb
20260502151202 11 270 3.2 6.4 0.00 0.00 0.00 51 1019.6
20260502122702 1 23 3.2 3.2 0.00 0.00 0.00 74 1019.3
20260502121702 1 45 0.0 3.2 0.00 0.00 0.00 75 1019.3
20260502120602 1 45 3.2 3.2 0.00 0.00 0.00 76 1019.3
20260502115502 1 68 0.0 0.0 0.00 0.00 0.00 78 1019.3
20260502112102 1 113 1.6 3.2 0.00 0.00 0.00 75 1019.3
20260502111101 1 0 3.2 3.2 0.00 0.00 0.00 75 1019.0
20260502110003 1 23 3.2 3.2 0.00 0.00 0.00 75 1019.3
20260502103702 1 45 0.0 0.0 0.00 0.00 0.00 75 1019.3
20260502102502 1 23 3.2 3.2 0.00 0.00 0.00 75 1019.3
20260502101402 1 0 3.2 3.2 0.00 0.00 0.00 76 1019.0
20260502100302 1 45 3.2 3.2 0.00 0.00 0.00 76 1019.3
20260502071302 2 23 0.0 0.0 0.00 0.00 0.00 69 1018.6
20260502065102 3 158 0.0 0.0 0.00 0.00 0.00 65 1019.0
20260502064003 3 158 0.0 0.0 0.00 0.00 0.00 65 1019.0
20260502062903 3 90 0.0 0.0 0.00 0.00 0.00 65 1019.0
20260502060702 3 158 0.0 0.0 0.00 0.00 0.00 65 1019.0
20260502055502 3 158 0.0 0.0 0.00 0.00 0.00 63 1019.0
20260502054302 3 158 0.0 0.0 0.00 0.00 0.00 61 1019.0
20260502052702 3 158 0.0 0.0 0.00 0.00 0.00 61 1018.6
20260502051302 4 158 0.0 0.0 0.00 0.00 0.00 60 1018.6
20260502050203 4 158 0.0 0.0 0.00 0.00 0.00 60 1018.3
20260502045305 4 158 0.0 0.0 0.00 0.00 0.00 59 1018.6
20260502042903 5 158 0.0 0.0 0.00 0.00 0.00 55 1018.3
20260502041702 5 158 0.0 0.0 0.00 0.00 0.00 54 1018.3
20260502040602 5 158 0.0 0.0 0.00 0.00 0.00 54 1018.6
20260502033902 5 158 0.0 0.0 0.00 0.00 0.00 53 1018.3
20260502032802 5 158 0.0 0.0 0.00 0.00 0.00 51 1018.3
20260502031602 6 158 0.0 0.0 0.00 0.00 0.00 50 1017.9
20260502030202 6 158 0.0 0.0 0.00 0.00 0.00 50 1018.3
20260502025002 6 158 0.0 0.0 0.00 0.00 0.00 50 1017.6
20260502023902 7 158 0.0 0.0 0.00 0.00 0.00 50 1017.6
20260502022802 7 158 0.0 0.0 0.00 0.00 0.00 49 1017.6
20260502021702 7 158 0.0 0.0 0.00 0.00 0.00 48 1017.6
20260502020602 8 158 0.0 0.0 0.00 0.00 0.00 46 1017.6
20260502015402 8 158 0.0 1.6 0.00 0.00 0.00 45 1017.3
20260502014303 8 135 3.2 3.2 0.00 0.00 0.00 44 1017.6
20260502013302 9 158 3.2 3.2 0.00 0.00 0.00 43 1017.3
20260502012202 10 158 1.6 4.8 0.00 0.00 0.00 40 1016.9
20260502005902 11 180 4.8 4.8 0.00 0.00 0.00 40 1016.6
20260502004802 11 203 8.0 8.0 0.00 0.00 0.00 37 1016.9
20260502003603 12 158 4.8 6.4 0.00 0.00 0.00 37 1016.6
20260502001302 12 203 3.2 6.4 0.00 0.00 0.00 35 1016.6
20260502000302 13 135 8.0 12.9 0.00 0.00 0.00 35 1016.6
20260501235202 14 180 4.8 11.3 0.00 0.00 0.00 34 1016.3
20260501234102 15 180 6.4 9.7 0.00 0.00 0.00 32 1016.3
20260501233003 15 113 6.4 6.4 0.00 0.00 0.00 31 1016.6
20260501231902 14 135 6.4 11.3 0.00 0.00 0.00 31 1016.3
20260501230802 15 225 9.7 9.7 0.00 0.00 0.00 31 1016.3
20260501225702 16 158 3.2 4.8 0.00 0.00 0.00 31 1016.3
20260501224602 15 225 8.0 8.0 0.00 0.00 0.00 31 1016.3
20260501223502 15 203 8.0 8.0 0.00 0.00 0.00 31 1016.6
20260501222402 15 158 8.0 11.3 0.00 0.00 0.00 31 1016.3
20260501221302 15 180 11.3 11.3 0.00 0.00 0.00 32 1016.3
20260501215003 16 180 4.8 9.7 0.00 0.00 0.00 31 1016.3
20260501212802 16 203 4.8 8.0 0.00 0.00 0.00 30 1016.3
20260501211702 16 158 14.5 14.5 0.00 0.00 0.00 32 1016.3
20260501210602 15 248 6.4 9.7 0.00 0.00 0.00 34 1016.3
20260501205602 16 158 6.4 6.4 0.00 0.00 0.00 30 1016.6
20260501204502 16 180 4.8 16.1 0.00 0.00 0.00 34 1016.6
20260501203402 15 203 6.4 9.7 0.00 0.00 0.00 37 1016.6
20260501202202 15 135 14.5 14.5 0.00 0.00 0.00 37 1016.6
20260501201102 15 270 8.0 8.0 0.00 0.00 0.00 39 1016.9
20260501195902 15 180 9.7 9.7 0.00 0.00 0.00 37 1016.9
20260501192502 13 113 6.4 6.4 0.00 0.00 0.00 40 1016.9
20260501191402 13 180 8.0 8.0 0.00 0.00 0.00 41 1016.9
20260501190202 13 135 8.0 9.7 0.00 0.00 0.00 44 1016.9
20260501185102 13 180 8.0 11.3 0.00 0.00 0.00 44 1016.9
20260501184002 13 113 8.0 11.3 0.00 0.00 0.00 45 1016.9
20260501181802 13 158 8.0 16.1 0.00 0.00 0.00 46 1016.9
20260501180702 13 113 8.0 9.7 0.00 0.00 0.00 50 1016.9
20260501174503 13 248 8.0 12.9 0.00 0.00 0.00 48 1017.3
20260501172305 12 203 3.2 9.7 0.00 0.00 0.00 46 1016.9
20260501171202 12 158 6.4 11.3 0.00 0.00 0.00 51 1016.9
20260501165002 12 158 6.4 11.3 0.00 0.00 0.00 55 1016.9
20260501163903 12 180 9.7 12.9 0.00 0.00 0.00 59 1017.3
20260501161602 11 135 9.7 9.7 0.00 0.00 0.00 60 1017.3
20260501160503 10 203 8.0 12.9 0.00 0.00 0.00 61 1017.3
20260501154302 11 203 8.0 11.3 0.00 0.00 0.00 61 1016.9
20260501153202 10 135 8.0 8.0 0.00 0.00 0.00 63 1016.9